Location: Peterborough
(44.3091°N, 78.3197°W)
Time: 19:26:43
(UTC-04:00)

Altair - Pass Details

Date: 30 March 2023
Orbit: 1501 x 1682 km, 47.2° (Epoch: 04 June)

Event Time Altitude Azimuth Distance (km) Brightness Sun altitude
Exits shadow 05:54:21 12° 233° (SW) 3,592 8.8 -12.1°
Maximum altitude 06:03:14 73° 152° (SSE) 1,591 7.6 -10.5°
Drops below altitude 10° 06:12:25 10° 70° (ENE) 3,665 11.2 -8.9°
Sets 06:15:25 0° 68° (ENE) 4,641 12.3 -8.4°
